WB2COY Weather Reports


Display with metric or nautical units.
time (UTC)temp
F
wind
direction
speed
MPH
gust
MPH
rain 1hr
in
rain 24hr
in
rain mn
in
humidity
%
barometer
mb
20260505183016 84 225 3.0 10.0 0.00 0.00 0.00 22 1006.5
20260505180016 84 225 3.0 12.0 0.00 0.00 0.00 24 1006.9
20260505173016 84 225 2.0 11.0 0.00 0.00 0.00 25 1007.2
20260505170015 82 248 2.0 8.0 0.00 0.00 0.00 28 1007.4
20260505163037 81 203 2.0 10.0 0.00 0.00 0.00 29 1008.0
20260505153015 77 135 1.0 7.0 0.00 0.00 0.00 36 1008.8
20260505123015 65 0.0 2.0 0.00 0.00 0.00 50 1009.7
20260505120035 59 0.0 0.0 0.00 0.00 0.00 60 1009.8
20260505113055 56 0.0 1.0 0.00 0.00 0.00 62 1009.7
20260505100015 52 0.0 0.0 0.00 0.00 0.00 65 1009.5
20260505093015 51 0.0 0.0 0.00 0.00 0.00 64 1009.1
20260505090017 51 0.0 0.0 0.00 0.00 0.00 63 1008.9
20260505083017 53 0.0 0.0 0.00 0.00 0.00 61 1009.0
20260505080017 51 0.0 1.0 0.00 0.00 0.00 64 1009.0
20260505073018 51 0.0 0.0 0.00 0.00 0.00 63 1009.1
20260505070016 51 0.0 0.0 0.00 0.00 0.00 62 1009.2
20260505063017 52 0.0 1.0 0.00 0.00 0.00 60 1009.0
20260505060016 53 0.0 0.0 0.00 0.00 0.00 57 1009.1
20260505053016 55 0.0 1.0 0.00 0.00 0.00 54 1009.3
20260505040017 57 0.0 1.0 0.00 0.00 0.00 51 1009.6
20260505033038 57 0.0 1.0 0.00 0.00 0.00 51 1009.4
20260505030017 58 0.0 1.0 0.00 0.00 0.00 49 1009.5
20260505023017 59 0.0 1.0 0.00 0.00 0.00 47 1009.6
20260505020037 60 0.0 1.0 0.00 0.00 0.00 43 1009.5
20260505013017 61 0.0 1.0 0.00 0.00 0.00 39 1009.2
20260505010016 64 0.0 2.0 0.00 0.00 0.00 34 1008.8
20260505003016 65 0.0 2.0 0.00 0.00 0.00 33 1008.4
20260505000037 67 0.0 4.0 0.00 0.00 0.00 30 1007.8
20260504233016 69 225 1.0 8.0 0.00 0.00 0.00 27 1007.5
20260504230038 70 225 1.0 6.0 0.00 0.00 0.00 26 1007.1
20260504223016 71 203 1.0 4.0 0.00 0.00 0.00 26 1006.9
20260504220016 72 225 1.0 7.0 0.00 0.00 0.00 24 1007.1
20260504213017 72 248 1.0 6.0 0.00 0.00 0.00 23 1007.4
20260504210016 71 225 1.0 7.0 0.00 0.00 0.00 23 1007.6
20260504203017 71 248 2.0 6.0 0.00 0.00 0.00 22 1007.7
20260504200017 72 225 2.0 12.0 0.00 0.00 0.00 22 1007.9
20260504193016 73 225 2.0 8.0 0.00 0.00 0.00 21 1008.3
20260504190016 74 225 2.0 8.0 0.00 0.00 0.00 24 1008.5